Powrót do katalogu

STARLINK-37035

AktywnyŁącznośćVLEO
NORAD 68180·PAYLOAD·🇺🇸 United States

Wystrzelony Mar 14, 2026 z Vandenberg Space Force Base

Loading…

Następne Przeloty (najbliższe 24 godziny)

TLE

ŚwieżeSource: CelesTrak SupGP

Epoka: Sep 14, 2026, 21:21 UTC

1 68180C 26050P   26257.89006944 -.00019351  00000+0 -57187-3 0  2576
2 68180  53.1568 103.9055 0001290  87.2974  47.8912 15.34392586    13

Śledź STARLINK-37035 w czasie rzeczywistym z AllMySat

Download on the App Store